{"data":{"norad_id":59284,"intl_designator":"2024-052E","name":"YUNHAI-2 02E","alt_names":[],"object_type":"PAYLOAD","status":"ACTIVE","operator":null,"country":"PRC","launch_date":"2024-03-21","launch_site_code":"JSC","launch_vehicle":null,"mission":null,"orbit_class":"UNKNOWN","rcs_meters":null,"size_class":null,"mass_kg":null,"dimensions":null,"purposes":[],"wikipedia_slug":null,"has_3d_model":false,"image_url":null,"decayed_at":null,"tle_current":{"epoch":"2026-05-25T04:08:54.499200Z","epoch_age_seconds":60126,"freshness":"FRESH","line1":"1 59284U 24052E   26145.17285300  .00000028  00000+0  75774-4 0  9998","line2":"2 59284  50.0114  60.3106 0012050 337.9894  22.0502 14.27955055103646","mean_motion":14.27955055,"eccentricity":0.001205,"inclination_deg":50.0114,"raan_deg":60.3106,"arg_perigee_deg":337.9894,"mean_anomaly_deg":22.0502,"bstar":7.5774e-5,"rev_number":10364,"period_min":100.84351009213,"perigee_km":789.92646933486,"apogee_km":807.22234382472,"semimajor_km":7176.7114065798,"source":"CELESTRAK","updated_at":"2026-05-25T13:38:01.313461Z"}}}